User: anonymous   Login
Location: Newark
(3.0500°N, 36.0167°E)
Time: 05:56:01
(UTC+00:00)
Language:

Altair - Orbit

View from above orbital plane
View from above orbital plane
View from above satellite
View from above satellite

Ground track
Ground track

The orbit data is extracted from the following two-line orbital elements,

1    50U 60009B   19232.73556251 -.00000102 +00000-0 -15487-3 0  9994
2    50 047.2333 337.6992 0113953 146.7326 214.0691 12.20109696633381
Epoch (UTC): 20 August 2019 17:39:12
Eccentricity: 0.0113953
inclination: 47.2333°
perigee height: 1501 km
apogee height: 1683 km
right ascension of ascending node: 337.6992°
argument of perigee: 146.7326°
revolutions per day: 12.20109696
mean anomaly at epoch: 214.0691°
orbit number at epoch: 63338

The dashed part of the orbit path shows where the satellite is in the earth's shadow,  

DLR